Regional Weather Roundup
Issued by NWS

Home | Current Version | Previous Version | Text Only | Print | Product List | Glossary On
Versions: 1 2 3 4 5 6 7 8 9 10 11 12 13 14 15 16 17 18 19 20 21 22 23 24 25 26 27
000
ASCA42 TJSJ 181210
RWRPR
PUERTO RICO/U.S. VIRGIN ISLANDS HOURLY WEATHER ROUNDUP
NATIONAL WEATHER SERVICE SAN JUAN PR
800 AM AST SAT NOV 18 2017

PRZ001>002-007>008-010-181300-
PUERTO RICO

CITY           SKY/WX    TMP DP  RH WIND       PRES   REMARKS
SAN JUAN LMM   PTSUNNY   81  77  89 CALM      29.79R
AGUADILLA      CLOUDY    75  73  94 MISG      29.83R
$$

VIZ001>002-181300-
U.S. VIRGIN ISLANDS

CITY           SKY/WX    TMP DP  RH WIND       PRES   REMARKS
CHARLOTTE AMA    N/A    N/A N/A N/A MISG      29.81R
$$

HOURLY WEATHER ROUNDUP FOR THE NEWS MEDIA

CITY           SKY/WX    TMP DP  RH WIND       PRES   REMARKS
ORLANDO        CLEAR     58  57  97 CALM      30.04R
NEW YORK       CLOUDY    32  26  78 CALM      30.00F
NEWARK         MOCLDY    33  23  66 W6        30.00S WCI  28
CHICAGO        CLOUDY    44  41  89 N12       29.48F
HARTFORD       PTCLDY    23  20  88 CALM      29.98R
BOSTON         PTCLDY    32  17  54 W6        29.98S WCI  26
DALLAS         PTCLDY    69  65  86 S6        29.70R
PHILADELPHIA   MOCLDY    38  32  79 S6        29.98F WCI  33
LOS ANGELES    CLEAR     58  55  90 CALM      30.11F
WASHINGTON DC  MOCLDY    40  32  73 S9        29.89F WCI  34



USA.gov is the U.S. government's official web portal to all federal, state and local government web resources and services.